Time,TemperatureF,DewpointF,PressureIn,WindDirection,WindDirectionDegrees,WindSpeedMPH,WindSpeedGustMPH,Humidity,HourlyPrecipIn,Conditions,Clouds,dailyrainin,SoftwareType,DateUTC
2013-03-22 00:06:00,28.0,18.0,30.04,SSW,201,6.0,9.0,67,0.00,,,0.00,weatherlink.com 1.10,2013-03-22 05:06:00,
2013-03-22 00:22:00,27.9,18.0,30.04,ESE,122,2.0,9.0,67,0.00,,,0.00,weatherlink.com 1.10,2013-03-22 05:22:00,
2013-03-22 01:06:00,27.4,18.0,30.04,South,180,4.0,8.0,68,0.00,,,0.00,weatherlink.com 1.10,2013-03-22 06:06:00,
2013-03-22 01:21:00,27.2,18.0,30.04,South,183,4.0,8.0,69,0.00,,,0.00,weatherlink.com 1.10,2013-03-22 06:21:00,
2013-03-22 01:36:00,27.0,18.0,30.04,SSW,204,5.0,6.0,70,0.00,,,0.00,weatherlink.com 1.10,2013-03-22 06:36:00,
2013-03-22 01:51:00,26.9,18.0,30.04,SSW,207,3.0,6.0,70,0.00,,,0.00,weatherlink.com 1.10,2013-03-22 06:51:00,
2013-03-22 02:06:00,27.1,19.0,30.04,South,184,3.0,6.0,70,0.00,,,0.00,weatherlink.com 1.10,2013-03-22 07:06:00,
2013-03-22 02:21:00,27.3,19.0,30.05,South,180,3.0,8.0,70,0.00,,,0.00,weatherlink.com 1.10,2013-03-22 07:21:00,
2013-03-22 02:36:00,27.4,19.0,30.05,SSW,195,1.0,6.0,70,0.00,,,0.00,weatherlink.com 1.10,2013-03-22 07:36:00,
2013-03-22 02:51:00,27.4,19.0,30.05,South,184,3.0,6.0,70,0.00,,,0.00,weatherlink.com 1.10,2013-03-22 07:51:00,
2013-03-22 03:06:00,27.4,19.0,30.05,South,179,3.0,7.0,70,0.00,,,0.00,weatherlink.com 1.10,2013-03-22 08:06:00,
2013-03-22 03:21:00,27.2,19.0,30.05,SSE,155,3.0,5.0,72,0.00,,,0.00,weatherlink.com 1.10,2013-03-22 08:21:00,
2013-03-22 03:36:00,27.0,19.0,30.04,SSE,167,0.0,4.0,73,0.00,,,0.00,weatherlink.com 1.10,2013-03-22 08:36:00,
2013-03-22 03:51:00,26.8,20.0,30.03,SSW,198,0.0,3.0,74,0.00,,,0.00,weatherlink.com 1.10,2013-03-22 08:51:00,
2013-03-22 04:06:00,26.6,20.0,30.02,SSE,155,3.0,5.0,75,0.00,,,0.00,weatherlink.com 1.10,2013-03-22 09:06:00,
2013-03-22 04:21:00,26.3,20.0,30.03,NW,309,1.0,5.0,76,0.00,,,0.00,weatherlink.com 1.10,2013-03-22 09:21:00,
2013-03-22 04:36:00,26.1,20.0,30.03,South,190,0.0,5.0,77,0.00,,,0.00,weatherlink.com 1.10,2013-03-22 09:36:00,
2013-03-22 04:51:00,25.8,20.0,30.03,South,171,3.0,6.0,78,0.00,,,0.00,weatherlink.com 1.10,2013-03-22 09:51:00,
2013-03-22 05:06:00,25.8,20.0,30.03,SSE,158,3.0,5.0,78,0.00,,,0.00,weatherlink.com 1.10,2013-03-22 10:06:00,
2013-03-22 05:21:00,25.9,20.0,30.04,SSE,162,3.0,5.0,78,0.00,,,0.00,weatherlink.com 1.10,2013-03-22 10:21:00,
2013-03-22 05:36:00,25.8,20.0,30.04,ENE,76,1.0,5.0,78,0.00,,,0.00,weatherlink.com 1.10,2013-03-22 10:36:00,
2013-03-22 05:51:00,25.7,20.0,30.04,SE,129,2.0,4.0,78,0.00,,,0.00,weatherlink.com 1.10,2013-03-22 10:51:00,
2013-03-22 06:06:00,25.7,20.0,30.05,South,186,2.0,5.0,79,0.00,,,0.00,weatherlink.com 1.10,2013-03-22 11:06:00,
2013-03-22 06:22:00,25.8,20.0,30.04,SE,136,1.0,3.0,79,0.00,,,0.00,weatherlink.com 1.10,2013-03-22 11:22:00,
2013-03-22 06:36:00,25.8,20.0,30.04,WNW,288,0.0,4.0,79,0.00,,,0.00,weatherlink.com 1.10,2013-03-22 11:36:00,
2013-03-22 06:51:00,25.8,20.0,30.05,West,276,1.0,5.0,79,0.00,,,0.00,weatherlink.com 1.10,2013-03-22 11:51:00,
2013-03-22 07:06:00,25.9,20.0,30.05,WSW,253,1.0,3.0,79,0.00,,,0.00,weatherlink.com 1.10,2013-03-22 12:06:00,
2013-03-22 07:22:00,26.0,20.0,30.04,ESE,116,2.0,7.0,79,0.00,,,0.00,weatherlink.com 1.10,2013-03-22 12:22:00,
2013-03-22 07:36:00,26.2,21.0,30.05,SSE,151,5.0,8.0,79,0.00,,,0.00,weatherlink.com 1.10,2013-03-22 12:36:00,
2013-03-22 07:52:00,26.4,21.0,30.05,NNE,26,2.0,8.0,79,0.00,,,0.00,weatherlink.com 1.10,2013-03-22 12:52:00,
2013-03-22 08:07:00,26.6,21.0,30.06,SE,127,1.0,8.0,79,0.00,,,0.00,weatherlink.com 1.10,2013-03-22 13:07:00,
2013-03-22 08:22:00,26.8,21.0,30.06,WNW,282,0.0,8.0,79,0.00,,,0.00,weatherlink.com 1.10,2013-03-22 13:22:00,
2013-03-22 08:37:00,27.1,21.0,30.07,East,97,5.0,7.0,79,0.00,,,0.00,weatherlink.com 1.10,2013-03-22 13:37:00,
2013-03-22 08:52:00,27.3,22.0,30.07,SSW,211,1.0,8.0,79,0.00,,,0.00,weatherlink.com 1.10,2013-03-22 13:52:00,
2013-03-22 09:07:00,27.9,22.0,30.07,ESE,113,4.0,10.0,78,0.00,,,0.00,weatherlink.com 1.10,2013-03-22 14:07:00,
2013-03-22 09:22:00,29.0,22.0,30.07,SSE,166,3.0,8.0,76,0.00,,,0.00,weatherlink.com 1.10,2013-03-22 14:22:00,
2013-03-22 09:37:00,29.4,22.0,30.07,South,186,3.0,7.0,73,0.00,,,0.00,weatherlink.com 1.10,2013-03-22 14:37:00,
2013-03-22 09:52:00,30.2,23.0,30.07,South,183,5.0,9.0,73,0.00,,,0.00,weatherlink.com 1.10,2013-03-22 14:52:00,
2013-03-22 10:07:00,31.3,23.0,30.07,SSE,152,3.0,9.0,72,0.00,,,0.00,weatherlink.com 1.10,2013-03-22 15:07:00,
2013-03-22 10:22:00,32.2,23.0,30.07,SSE,162,2.0,8.0,69,0.00,,,0.00,weatherlink.com 1.10,2013-03-22 15:22:00,
2013-03-22 10:37:00,32.8,23.0,30.07,SE,143,5.0,7.0,68,0.00,,,0.00,weatherlink.com 1.10,2013-03-22 15:37:00,
2013-03-22 10:52:00,33.5,23.0,30.06,SW,233,3.0,6.0,66,0.00,,,0.00,weatherlink.com 1.10,2013-03-22 15:52:00,
2013-03-22 11:07:00,33.7,23.0,30.06,South,187,0.0,10.0,65,0.00,,,0.00,weatherlink.com 1.10,2013-03-22 16:07:00,
2013-03-22 11:24:00,34.4,22.0,30.06,SW,221,3.0,5.0,61,0.00,,,0.00,weatherlink.com 1.10,2013-03-22 16:24:00,
2013-03-22 11:37:00,34.2,21.0,30.05,SW,225,4.0,8.0,60,0.00,,,0.00,weatherlink.com 1.10,2013-03-22 16:37:00,
2013-03-22 11:52:00,34.8,22.0,30.06,WSW,249,3.0,7.0,59,0.00,,,0.00,weatherlink.com 1.10,2013-03-22 16:52:00,
2013-03-22 12:07:00,35.1,21.0,30.05,WSW,246,6.0,8.0,56,0.00,,,0.00,weatherlink.com 1.10,2013-03-22 17:07:00,
2013-03-22 12:22:00,35.5,20.0,30.05,WSW,244,6.0,9.0,53,0.00,,,0.00,weatherlink.com 1.10,2013-03-22 17:22:00,
2013-03-22 12:37:00,36.7,21.0,30.04,NW,312,5.0,8.0,53,0.00,,,0.00,weatherlink.com 1.10,2013-03-22 17:37:00,
2013-03-22 12:52:00,36.8,20.0,30.04,SW,215,3.0,12.0,52,0.00,,,0.00,weatherlink.com 1.10,2013-03-22 17:52:00,
2013-03-22 13:07:00,36.8,20.0,30.04,West,262,5.0,11.0,50,0.00,,,0.00,weatherlink.com 1.10,2013-03-22 18:07:00,
2013-03-22 13:22:00,38.0,21.0,30.03,NE,51,2.0,8.0,51,0.00,,,0.00,weatherlink.com 1.10,2013-03-22 18:22:00,
2013-03-22 13:37:00,37.9,21.0,30.03,West,266,7.0,9.0,50,0.00,,,0.00,weatherlink.com 1.10,2013-03-22 18:37:00,
2013-03-22 13:53:00,37.7,19.0,30.03,WSW,252,5.0,11.0,48,0.00,,,0.00,weatherlink.com 1.10,2013-03-22 18:53:00,
2013-03-22 14:08:00,37.8,21.0,30.02,WSW,245,7.0,8.0,50,0.00,,,0.00,weatherlink.com 1.10,2013-03-22 19:08:00,
2013-03-22 14:23:00,37.8,20.0,30.02,SE,145,3.0,9.0,49,0.00,,,0.00,weatherlink.com 1.10,2013-03-22 19:23:00,
2013-03-22 14:38:00,38.0,20.0,30.02,SW,214,1.0,7.0,49,0.00,,,0.00,weatherlink.com 1.10,2013-03-22 19:38:00,
2013-03-22 14:53:00,38.4,21.0,30.02,WNW,283,3.0,5.0,50,0.00,,,0.00,weatherlink.com 1.10,2013-03-22 19:53:00,
2013-03-22 15:08:00,38.2,21.0,30.02,West,270,6.0,6.0,50,0.00,,,0.00,weatherlink.com 1.10,2013-03-22 20:08:00,
2013-03-22 15:23:00,38.4,21.0,30.02,West,275,1.0,5.0,50,0.00,,,0.00,weatherlink.com 1.10,2013-03-22 20:23:00,
2013-03-22 15:38:00,37.8,21.0,30.02,WNW,295,1.0,4.0,50,0.00,,,0.00,weatherlink.com 1.10,2013-03-22 20:38:00,
2013-03-22 15:53:00,38.1,21.0,30.02,WSW,252,2.0,6.0,50,0.00,,,0.00,weatherlink.com 1.10,2013-03-22 20:53:00,
2013-03-22 16:08:00,38.1,21.0,30.02,SSE,163,2.0,6.0,50,0.00,,,0.00,weatherlink.com 1.10,2013-03-22 21:08:00,
2013-03-22 16:23:00,38.7,21.0,30.01,SW,215,1.0,3.0,50,0.00,,,0.00,weatherlink.com 1.10,2013-03-22 21:23:00,
2013-03-22 16:38:00,38.2,20.0,30.02,SW,236,2.0,5.0,49,0.00,,,0.00,weatherlink.com 1.10,2013-03-22 21:38:00,
2013-03-22 16:53:00,38.4,22.0,30.01,WNW,293,1.0,4.0,51,0.00,,,0.00,weatherlink.com 1.10,2013-03-22 21:53:00,
2013-03-22 17:08:00,38.3,20.0,30.00,SSE,163,2.0,6.0,49,0.00,,,0.00,weatherlink.com 1.10,2013-03-22 22:08:00,
2013-03-22 17:23:00,38.4,21.0,30.01,SSE,158,2.0,5.0,50,0.00,,,0.00,weatherlink.com 1.10,2013-03-22 22:23:00,
2013-03-22 17:38:00,38.2,22.0,30.00,ESE,110,1.0,4.0,52,0.00,,,0.00,weatherlink.com 1.10,2013-03-22 22:38:00,
2013-03-22 17:53:00,37.9,22.0,30.01,East,89,1.0,4.0,53,0.00,,,0.00,weatherlink.com 1.10,2013-03-22 22:53:00,
2013-03-22 18:08:00,37.5,23.0,30.00,NE,48,1.0,6.0,55,0.00,,,0.00,weatherlink.com 1.10,2013-03-22 23:08:00,
2013-03-22 18:23:00,37.2,22.0,30.01,SW,223,3.0,5.0,55,0.00,,,0.00,weatherlink.com 1.10,2013-03-22 23:23:00,
2013-03-22 18:38:00,37.1,22.0,30.01,WNW,300,0.0,6.0,55,0.00,,,0.00,weatherlink.com 1.10,2013-03-22 23:38:00,
2013-03-22 18:53:00,36.8,22.0,30.01,South,177,4.0,5.0,56,0.00,,,0.00,weatherlink.com 1.10,2013-03-22 23:53:00,
2013-03-22 19:08:00,36.7,22.0,30.03,SW,215,3.0,5.0,56,0.00,,,0.00,weatherlink.com 1.10,2013-03-23 00:08:00,
2013-03-22 19:23:00,36.5,23.0,30.02,SSW,195,2.0,6.0,58,0.00,,,0.00,weatherlink.com 1.10,2013-03-23 00:23:00,
2013-03-22 19:38:00,36.3,23.0,30.02,East,80,2.0,5.0,60,0.00,,,0.00,weatherlink.com 1.10,2013-03-23 00:38:00,
2013-03-22 19:53:00,36.0,23.0,30.02,NW,308,1.0,5.0,60,0.00,,,0.00,weatherlink.com 1.10,2013-03-23 00:53:00,
2013-03-22 20:08:00,35.9,23.0,30.02,SE,141,1.0,5.0,61,0.00,,,0.00,weatherlink.com 1.10,2013-03-23 01:08:00,
2013-03-22 20:23:00,35.7,24.0,30.03,SSE,152,1.0,7.0,62,0.00,,,0.00,weatherlink.com 1.10,2013-03-23 01:23:00,
2013-03-22 20:38:00,35.6,24.0,30.03,South,188,4.0,6.0,62,0.00,,,0.00,weatherlink.com 1.10,2013-03-23 01:38:00,
2013-03-22 20:53:00,35.5,24.0,30.04,SW,225,1.0,8.0,62,0.00,,,0.00,weatherlink.com 1.10,2013-03-23 01:53:00,
2013-03-22 21:08:00,35.5,23.0,30.04,South,169,3.0,8.0,61,0.00,,,0.00,weatherlink.com 1.10,2013-03-23 02:08:00,
2013-03-22 21:23:00,35.4,23.0,30.04,SE,141,1.0,6.0,62,0.00,,,0.00,weatherlink.com 1.10,2013-03-23 02:23:00,
2013-03-22 21:38:00,35.3,24.0,30.05,SSE,167,3.0,5.0,63,0.00,,,0.00,weatherlink.com 1.10,2013-03-23 02:38:00,
2013-03-22 21:53:00,35.2,24.0,30.05,South,176,4.0,5.0,64,0.00,,,0.00,weatherlink.com 1.10,2013-03-23 02:53:00,
2013-03-22 22:08:00,35.1,24.0,30.05,SSE,153,2.0,5.0,64,0.00,,,0.00,weatherlink.com 1.10,2013-03-23 03:08:00,
2013-03-22 22:23:00,35.0,24.0,30.05,South,173,2.0,4.0,64,0.00,,,0.00,weatherlink.com 1.10,2013-03-23 03:23:00,
2013-03-22 22:38:00,34.9,24.0,30.05,South,172,2.0,4.0,65,0.00,,,0.00,weatherlink.com 1.10,2013-03-23 03:38:00,
2013-03-22 22:53:00,34.8,24.0,30.05,WSW,250,0.0,4.0,65,0.00,,,0.00,weatherlink.com 1.10,2013-03-23 03:53:00,
2013-03-22 23:08:00,34.7,24.0,30.05,South,169,0.0,3.0,65,0.00,,,0.00,weatherlink.com 1.10,2013-03-23 04:08:00,
2013-03-22 23:23:00,34.7,24.0,30.05,SSE,152,2.0,3.0,64,0.00,,,0.00,weatherlink.com 1.10,2013-03-23 04:23:00,
2013-03-22 23:38:00,34.6,24.0,30.05,SSE,155,1.0,2.0,65,0.00,,,0.00,weatherlink.com 1.10,2013-03-23 04:38:00,
2013-03-22 23:53:00,34.6,23.0,30.05,SSE,158,0.0,2.0,64,0.00,,,0.00,weatherlink.com 1.10,2013-03-23 04:53:00,